Location: George Washington National Forest Helicopter Landing Site
(38.6463°N, 79.0851°W)
Time: 05:36:56
(UTC-04:00)

Transit 4A - All Passes

Search period start: 26 August 2019 00:00
Search period end: 05 September 2019 00:00
Orbit: 864 x 981 km, 66.8° (Epoch: 25 August)

Date Brightness Start Highest point End Pass type
(mag) Time Alt. Az. Time Alt. Az. Time Alt. Az.
26 Aug - 02:47:49 10° NNW 02:53:29 37° NE 02:58:59 10° ESE visible
26 Aug - 04:34:17 10° NW 04:39:46 35° WSW 04:45:05 10° S visible
26 Aug - 17:52:14 10° SSW 17:58:32 65° ESE 18:04:52 10° NE daylight
26 Aug - 19:40:17 10° W 19:45:24 24° NW 19:50:31 10° N daylight
27 Aug - 01:13:24 10° NNE 01:15:06 11° NE 01:16:47 10° NE visible
27 Aug - 02:56:57 10° NNW 03:02:59 53° ENE 03:08:49 10° SE visible
27 Aug - 04:44:15 10° NW 04:48:52 23° WSW 04:53:23 10° SSW visible
27 Aug - 16:19:13 10° SE 16:22:20 14° ESE 16:25:26 10° ENE daylight
27 Aug - 18:01:26 10° SSW 18:07:50 87° WNW 18:14:17 10° NNE daylight
27 Aug - 19:50:56 10° W 19:55:07 18° NW 19:59:19 10° N daylight
28 Aug - 01:21:26 10° N 01:24:58 15° NE 01:28:26 10° ENE visible
28 Aug - 03:06:13 10° NNW 03:12:23 79° ENE 03:18:20 10° SSE visible
28 Aug - 04:54:49 10° WNW 04:57:54 14° WSW 05:00:57 10° SW visible
28 Aug - 16:26:38 10° SSE 16:31:22 22° ESE 16:36:06 10° ENE daylight
28 Aug - 18:10:55 10° SW 18:17:14 61° WNW 18:23:34 10° NNE daylight
28 Aug - 20:02:08 10° WNW 20:04:57 13° NW 20:07:46 10° NNW daylight
29 Aug - 01:30:08 10° N 01:34:44 21° NE 01:39:12 10° E visible
29 Aug - 03:15:36 10° NNW 03:21:43 71° WSW 03:27:36 10° SSE visible
29 Aug - 16:34:52 10° S 16:40:28 33° ESE 16:46:06 10° NE daylight
29 Aug - 18:20:41 10° SW 18:26:42 42° NW 18:32:45 10° NNE daylight
30 Aug - 01:39:04 10° N 01:44:24 29° NE 01:49:34 10° ESE visible
30 Aug - 03:25:08 10° NW 03:30:57 46° WSW 03:36:33 10° S visible
30 Aug - 16:43:32 10° S 16:49:40 50° ESE 16:55:48 10° NE daylight
30 Aug - 18:30:44 10° WSW 18:36:16 30° NW 18:41:49 10° N daylight
31 Aug - 01:48:08 10° NNW 01:53:57 42° NE 01:59:35 10° SE visible
31 Aug - 03:34:54 10° NW 03:40:05 30° WSW 03:45:09 10° SSW visible
31 Aug - 16:52:33 10° SSW 16:58:55 75° ESE 17:05:19 10° NNE daylight
31 Aug - 18:41:07 10° W 18:45:56 22° NW 18:50:45 10° N daylight
01 Sep - 00:13:12 10° NNE 00:15:42 12° NE 00:18:10 10° ENE visible
01 Sep - 01:57:20 10° NNW 02:03:25 61° ENE 02:09:17 10° SE visible
01 Sep - 03:45:01 10° WNW 03:49:09 19° WSW 03:53:14 10° SSW visible
01 Sep - 15:18:47 10° SE 15:22:37 17° ESE 15:26:27 10° ENE daylight
01 Sep - 17:01:51 10° SSW 17:08:16 77° WNW 17:14:40 10° NNE daylight
01 Sep - 18:51:56 10° WNW 18:55:42 16° NW 18:59:27 10° N daylight
02 Sep - 00:21:35 10° N 00:25:32 17° NE 00:29:24 10° E visible
02 Sep - 02:06:38 10° NNW 02:12:48 90° E 02:18:44 10° SSE visible
02 Sep - 03:56:06 10° W 03:58:10 12° W 04:00:13 10° WSW night (unlit)
02 Sep - 15:26:35 10° SSE 15:31:41 26° ESE 15:36:48 10° NE daylight
02 Sep - 17:11:27 10° SW 17:17:41 53° WNW 17:23:55 10° NNE daylight
02 Sep - 19:03:32 10° NW 19:05:34 11° NW 19:07:36 10° NNW daylight
03 Sep - 00:30:23 10° N 00:35:16 24° NE 00:40:00 10° E visible
03 Sep - 02:16:03 10° NW 02:22:05 61° WSW 02:27:53 10° SSE visible
03 Sep - 15:34:59 10° S 15:40:49 39° ESE 15:46:40 10° NE daylight
03 Sep - 17:21:19 10° WSW 17:27:11 37° NW 17:33:03 10° NNE daylight
04 Sep - 00:39:22 10° NNW 00:44:53 33° NE 00:50:13 10° ESE visible
04 Sep - 02:25:40 10° NW 02:31:16 39° WSW 02:36:42 10° S visible
04 Sep - 15:43:47 10° S 15:50:02 58° ESE 15:56:17 10° NE daylight
04 Sep - 17:31:29 10° WSW 17:36:47 27° NW 17:42:05 10° N daylight
